THOR AGENA D R/B, 2255

Orbit data source: Space-Track

THOR AGENA D R/B, 2255 is space debris in LEO originally from a launch on Fri, 24 Jun 1966 UTC launched from the Air Force Western Test Range (AFWTR). Debris objects in space refer to the collection of defunct objects orbiting the Earth. Examples of debris include non-operational satellites, rocket bodies, and fragments generated from explosions, collisions, or faulty payload assembly.

Loading next visibility...
Identifier
2255, 1966-056B
Orbit
LEO
Country
Flag of USUS
Related business
Manufacturer
LMSC
Mission
Spacecraft
Bus & Motor
AGENA D, Unknown motor
Mass
600 kg wet, 600 kg dry
Launch date (UTC)
1966-06-24 (60 years ago)
Launch vehicle
Unknown
Launch site
Air Force Western Test Range (AFWTR)
Object type
Payload
Rocket body
Debris
Shape & HBR
Unknown
Radar Cross Section
Large (>1 m²)

Expand to show TLE details & history
Last TLE update: 1 day ago

TLE from 1 day ago
0 THOR AGENA D R/B
1 02255U 66056B   26135.11283849 -.00000005  00000-0 -67431-2 0  9990
2 02255  86.9768 181.9768 0047249 127.3740 233.1383  7.94756323737691
Epoch: 2026-05-15T02:42Z
TLE epoch observation values (Epoch: 2026-05-15T02:42:29.245Z)
Latitude
0.00003°
Longitude
-91.49388°
Altitude
4,260.817 km
Speed
6.113 km/s
True Right ascension
12h 07m 54s
True Declination
0° 00' 00"
Sunlit
Object was in daylight at epoch
Visualization orbit readout
Latitude
Unknown
Longitude
Unknown
Altitude
Unknown
Speed
Unknown
Apparent Right ascension
Unknown
Apparent Declination
Unknown
Sunlit
N/A
Visualization observer readout
Local Sidereal Time
16:30:19
Azimuth
Unknown
Elevation
Unknown
Doppler factor
Unknown
Orbital elements
Apogee altitude
4,276.59 km
Perigee altitude
4,176.378 km
Semi-major axis
10,604.621 km
Eccentricity
0.00472
Inclination
86.9768°
RAAN
181.9768°
Arg. of periapsis
127.374°
True anomaly
232.70664°
Mean anomaly
233.1383°
Eccentric anomaly
232.92232°
Mean motion
1.98747 °/min
Orbital period
181.13 mins
BSTAR
-0.0067431
Loading maneuver chart data...
Computing Atmospheric mass density...

Documentation

Showing up to 5 results
|